Madison, MN

8:36 PM CST on December 08, 2019 (GMT -0600)
Madison-Lac Qui Parle County

Weather History for KDXX - October, 2019

Change the Weather History Date:

Monday, October 7, 2019

  Actual Average (KAQP) Record (KAQP)
Temperature  
Mean Temperature 56 °F -  
Max Temperature 71 °F 61 °F 86 °F (2003)
Min Temperature 42 °F 37 °F 24 °F (2001)
Degree Days  
Heating Degree Days 8    
Growing Degree Days 6 (Base 50)    
Moisture  
Dew Point 39 °F    
Average Humidity 57    
Maximum Humidity 81    
Minimum Humidity 25    
Precipitation  
Precipitation 0.00 in - - ()
Sea Level Pressure  
Sea Level Pressure 30.08 in    
Wind  
Wind Speed 7 mph (SW)    
Max Wind Speed 15 mph    
Max Gust Speed 20 mph    
Visibility 10 miles    
Events      
Averages and records for this station are not official NWS values.
T = Trace of Precipitation, MM = Missing Value Source: NWS Daily Summary

Daily Weather History Graph

Daily Weather History Graph

Search for Another Location

Airport or City:

Astronomy

Oct. 07, 2019 Rise Set
Actual Time 7:29 AM CDT 6:54 PM CDT
Civil Twilight 7:00 AM CDT 7:23 PM CDT
Nautical Twilight 6:26 AM CDT 7:57 PM CDT
Astronomical Twilight 5:52 AM CDT 8:31 PM CDT
Moon 4:34 PM CDT (10/7) 1:04 AM CDT (10/7)
Length of Visible Light 12h 23m
Length of Day
11h 24m
Waxing Gibbous, 69% of the Moon is Illuminated
Oct 7
Waxing Gibbous
Oct 13
Full
Oct 21
Last Quarter
Oct 27
New
Nov 4
First Quarter

Hourly Weather History & Observations

Time (CDT) Temp. Windchill Dew Point Humidity Pressure Visibility Wind Dir Wind Speed Gust Speed Precip Events Conditions
12:15 AM 51.8 °F - 39.2 °F 62% 30.10 in 10.0 mi West 9.2 mph - N/A   Clear
12:16 AM 51.8 °F - 39.2 °F 62% 30.10 in 10.0 mi West 9.2 mph - N/A   Clear
12:35 AM 51.8 °F - 39.2 °F 62% 30.10 in 10.0 mi West 5.8 mph - N/A   Clear
12:36 AM 51.8 °F - 39.2 °F 62% 30.10 in 10.0 mi West 6.9 mph - N/A   Clear
12:59 AM 50.0 °F - 39.2 °F 66% 30.10 in 10.0 mi West 6.9 mph - N/A   Clear
1:16 AM 50.0 °F - 39.2 °F 66% 30.10 in 10.0 mi West 6.9 mph - N/A   Clear
1:36 AM 50.0 °F - 39.2 °F 66% 30.10 in 10.0 mi WSW 8.1 mph - N/A   Clear
1:55 AM 48.2 °F - 39.2 °F 71% 30.10 in 10.0 mi West 6.9 mph - N/A   Clear
2:15 AM 48.2 °F - 39.2 °F 71% 30.11 in 10.0 mi West 5.8 mph - N/A   Clear
2:19 AM 48.2 °F - 39.2 °F 71% 30.11 in 10.0 mi WSW 6.9 mph - N/A   Clear
2:38 AM 48.2 °F - 39.2 °F 71% 30.11 in 10.0 mi West 6.9 mph - N/A   Clear
2:56 AM 48.2 °F - 39.2 °F 71% 30.11 in 10.0 mi West 8.1 mph - N/A   Clear
3:15 AM 48.2 °F - 39.2 °F 71% 30.11 in 10.0 mi West 6.9 mph - N/A   Clear
3:16 AM 48.2 °F - 39.2 °F 71% 30.11 in 10.0 mi West 6.9 mph - N/A   Clear
3:35 AM 46.4 °F 43.5 °F 39.2 °F 76% 30.12 in 10.0 mi West 5.8 mph - N/A   Clear
3:58 AM 46.4 °F 42.9 °F 39.2 °F 76% 30.12 in 10.0 mi West 6.9 mph - N/A   Clear
4:16 AM 46.4 °F 42.9 °F 39.2 °F 76% 30.12 in 10.0 mi West 6.9 mph - N/A   Clear
4:35 AM 46.4 °F 42.9 °F 39.2 °F 76% 30.13 in 10.0 mi West 6.9 mph - N/A   Clear
4:55 AM 46.4 °F 43.5 °F 39.2 °F 76% 30.13 in 10.0 mi WSW 5.8 mph - N/A   Clear
4:56 AM 46.4 °F 43.5 °F 39.2 °F 76% 30.13 in 10.0 mi WSW 5.8 mph - N/A   Clear
5:15 AM 46.4 °F 44.3 °F 39.2 °F 76% 30.14 in 10.0 mi WSW 4.6 mph - N/A   Clear
5:20 AM 46.4 °F 44.3 °F 39.2 °F 76% 30.14 in 10.0 mi WSW 4.6 mph - N/A   Clear
5:38 AM 44.6 °F 41.4 °F 39.2 °F 81% 30.14 in 10.0 mi West 5.8 mph - N/A   Clear
5:55 AM 44.6 °F 41.4 °F 39.2 °F 81% 30.14 in 10.0 mi West 5.8 mph - N/A   Clear
6:15 AM 44.6 °F 41.4 °F 39.2 °F 81% 30.14 in 10.0 mi WSW 5.8 mph - N/A   Clear
6:16 AM 44.6 °F 41.4 °F 39.2 °F 81% 30.14 in 10.0 mi West 5.8 mph - N/A   Clear
6:35 AM 44.6 °F 42.2 °F 39.2 °F 81% 30.14 in 10.0 mi West 4.6 mph - N/A   Clear
6:58 AM 44.6 °F 42.2 °F 39.2 °F 81% 30.15 in 10.0 mi WSW 4.6 mph - N/A   Clear
7:17 AM 44.6 °F 43.1 °F 37.4 °F 76% 30.15 in 10.0 mi WSW 3.5 mph - N/A   Clear
7:36 AM 42.8 °F 39.3 °F 37.4 °F 81% 30.15 in 10.0 mi West 5.8 mph - N/A   Clear
7:55 AM 44.6 °F 40.7 °F 39.2 °F 81% 30.16 in 10.0 mi West 6.9 mph - N/A   Clear
7:56 AM 44.6 °F 41.4 °F 39.2 °F 81% 30.16 in 10.0 mi West 5.8 mph - N/A   Clear
8:15 AM 44.6 °F 41.4 °F 39.2 °F 81% 30.15 in 10.0 mi WSW 5.8 mph - N/A   Clear
8:20 AM 46.4 °F 44.3 °F 39.2 °F 76% 30.16 in 10.0 mi WSW 4.6 mph - N/A   Clear
8:37 AM 46.4 °F - 39.2 °F 76% 30.16 in 10.0 mi Calm Calm - N/A   Clear
8:55 AM 48.2 °F - 41.0 °F 76% 30.16 in 10.0 mi WSW 3.5 mph - N/A   Clear
9:15 AM 51.8 °F - 41.0 °F 67% 30.16 in 10.0 mi WSW 5.8 mph - N/A   Clear
9:16 AM 51.8 °F - 41.0 °F 67% 30.16 in 10.0 mi WSW 5.8 mph - N/A   Clear
9:35 AM 53.6 °F - 41.0 °F 62% 30.16 in 10.0 mi WSW 6.9 mph - N/A   Clear
9:36 AM 53.6 °F - 41.0 °F 62% 30.16 in 10.0 mi WSW 5.8 mph - N/A   Clear
9:59 AM 55.4 °F - 41.0 °F 58% 30.16 in 10.0 mi WSW 5.8 mph - N/A   Clear
10:16 AM 57.2 °F - 42.8 °F 59% 30.16 in 10.0 mi WSW 5.8 mph - N/A   Clear
10:36 AM 60.8 °F - 41.0 °F 48% 30.16 in 10.0 mi SW 5.8 mph - N/A   Clear
10:55 AM 62.6 °F - 41.0 °F 45% 30.16 in 10.0 mi West 8.1 mph - N/A   Clear
11:15 AM 64.4 °F - 39.2 °F 40% 30.16 in 10.0 mi WSW 4.6 mph - N/A   Clear
11:38 AM 66.2 °F - 35.6 °F 32% 30.16 in 10.0 mi WSW 9.2 mph - N/A   Clear
11:56 AM 66.2 °F - 35.6 °F 32% 30.15 in 10.0 mi WSW 11.5 mph 16.1 mph N/A   Clear
12:15 PM 68.0 °F - 35.6 °F 30% 30.15 in 10.0 mi WSW 11.5 mph 16.1 mph N/A   Clear
12:16 PM 68.0 °F - 35.6 °F 30% 30.15 in 10.0 mi WSW 11.5 mph 16.1 mph N/A   Clear
12:35 PM 69.8 °F - 33.8 °F 27% 30.14 in 10.0 mi SW 15.0 mph - N/A   Clear
12:36 PM 69.8 °F - 33.8 °F 27% 30.14 in 10.0 mi SW 13.8 mph - N/A   Clear
12:59 PM 69.8 °F - 33.8 °F 27% 30.14 in 10.0 mi WSW 10.4 mph 19.6 mph N/A   Clear
1:16 PM 69.8 °F - 35.6 °F 28% 30.13 in 10.0 mi WSW 8.1 mph 17.3 mph N/A   Clear
1:36 PM 69.8 °F - 35.6 °F 28% 30.12 in 10.0 mi WSW 9.2 mph 18.4 mph N/A   Clear
1:55 PM 69.8 °F - 33.8 °F 27% 30.10 in 10.0 mi WSW 10.4 mph 16.1 mph N/A   Clear
1:56 PM 69.8 °F - 33.8 °F 27% 30.10 in 10.0 mi SW 10.4 mph 16.1 mph N/A   Clear
2:19 PM 69.8 °F - 33.8 °F 27% 30.09 in 10.0 mi WSW 12.7 mph - N/A   Clear
2:38 PM 69.8 °F - 33.8 °F 27% 30.09 in 10.0 mi WSW 11.5 mph - N/A   Clear
2:55 PM 69.8 °F - 33.8 °F 27% 30.08 in 10.0 mi WSW 8.1 mph 17.3 mph N/A   Clear
3:15 PM 71.6 °F - 33.8 °F 25% 30.07 in 10.0 mi SW 10.4 mph - N/A   Clear
3:16 PM 71.6 °F - 33.8 °F 25% 30.08 in 10.0 mi WSW 11.5 mph - N/A   Clear
3:35 PM 69.8 °F - 33.8 °F 27% 30.06 in 10.0 mi SSW 9.2 mph - N/A   Clear
3:36 PM 69.8 °F - 33.8 °F 27% 30.06 in 10.0 mi SSW 8.1 mph - N/A   Clear
3:58 PM 71.6 °F - 33.8 °F 25% 30.06 in 10.0 mi WSW 9.2 mph - N/A   Clear
4:17 PM 69.8 °F - 33.8 °F 27% 30.05 in 10.0 mi WSW 9.2 mph - N/A   Clear
4:35 PM 69.8 °F - 35.6 °F 28% 30.05 in 10.0 mi West 8.1 mph - N/A   Clear
4:55 PM 69.8 °F - 33.8 °F 27% 30.04 in 10.0 mi SW 10.4 mph - N/A   Clear
4:56 PM 69.8 °F - 33.8 °F 27% 30.04 in 10.0 mi SW 9.2 mph - N/A   Clear
5:15 PM 69.8 °F - 33.8 °F 27% 30.03 in 10.0 mi SW 8.1 mph - N/A   Clear
5:37 PM 69.8 °F - 35.6 °F 28% 30.03 in 10.0 mi SSW 5.8 mph - N/A   Clear
6:15 PM 66.2 °F - 37.4 °F 35% 30.02 in 5.0 mi SSW 3.5 mph - N/A   Haze
6:35 PM 64.4 °F - 39.2 °F 40% 30.02 in 10.0 mi South 4.6 mph - N/A   Clear
6:36 PM 64.4 °F - 39.2 °F 40% 30.02 in 10.0 mi South 4.6 mph - N/A   Clear
6:59 PM 60.8 °F - 39.2 °F 45% 30.01 in 10.0 mi South 5.8 mph - N/A   Clear
7:16 PM 59.0 °F - 39.2 °F 48% 30.01 in 10.0 mi SSE 5.8 mph - N/A   Clear
7:36 PM 57.2 °F - 41.0 °F 55% 30.01 in 10.0 mi SSE 5.8 mph - N/A   Clear
7:55 PM 55.4 °F - 41.0 °F 58% 30.00 in 10.0 mi SE 5.8 mph - N/A   Clear
7:56 PM 55.4 °F - 41.0 °F 58% 30.00 in 10.0 mi SE 5.8 mph - N/A   Clear
8:15 PM 53.6 °F - 41.0 °F 62% 30.00 in 10.0 mi SE 6.9 mph - N/A   Clear
8:19 PM 53.6 °F - 41.0 °F 62% 30.00 in 10.0 mi SSE 6.9 mph - N/A   Clear
8:37 PM 51.8 °F - 41.0 °F 67% 30.00 in 10.0 mi SSE 6.9 mph - N/A   Clear
8:56 PM 51.8 °F - 41.0 °F 67% 29.99 in 10.0 mi SE 5.8 mph - N/A   Clear
9:15 PM 51.8 °F - 41.0 °F 67% 29.98 in 10.0 mi SE 8.1 mph - N/A   Clear
9:16 PM 51.8 °F - 41.0 °F 67% 29.98 in 10.0 mi SE 8.1 mph - N/A   Clear
9:35 PM 51.8 °F - 41.0 °F 67% 29.98 in 10.0 mi SE 8.1 mph - N/A   Clear
9:36 PM 51.8 °F - 41.0 °F 67% 29.97 in 10.0 mi SE 8.1 mph - N/A   Clear
9:58 PM 51.8 °F - 41.0 °F 67% 29.97 in 10.0 mi SE 6.9 mph - N/A   Clear
10:16 PM 51.8 °F - 41.0 °F 67% 29.96 in 10.0 mi SE 6.9 mph - N/A   Clear
10:35 PM 51.8 °F - 41.0 °F 67% 29.95 in 10.0 mi SE 5.8 mph - N/A   Clear
10:55 PM 53.6 °F - 41.0 °F 62% 29.94 in 10.0 mi SSE 8.1 mph - N/A   Clear
10:56 PM 53.6 °F - 41.0 °F 62% 29.94 in 10.0 mi SSE 8.1 mph - N/A   Clear
11:15 PM 53.6 °F - 42.8 °F 67% 29.94 in 10.0 mi SSE 8.1 mph - N/A   Clear
11:19 PM 51.8 °F - 42.8 °F 71% 29.94 in 10.0 mi SSE 8.1 mph - N/A   Clear
11:38 PM 51.8 °F - 42.8 °F 71% 29.93 in 10.0 mi SSE 6.9 mph - N/A   Clear
11:55 PM 51.8 °F - 42.8 °F 71% 29.93 in 10.0 mi SSE 8.1 mph - N/A   Clear